Wind_Speed
30 31 31 32 32 32 32 32 32 33 33 33 32 32 32 32 32 33 33 33 32 32 32 32 32 32 33 34 36 37 39 40 41 42 43 43 42 42 42 42 42 42 42 43 43 43 43 43 43 42 42 42 42 42 42 41 40 38 36 36 36 37 37 36 36 36 36 35 35 34 33 34 34 33 32 31 30 30 31 31 32 32 32 32 31 32
30 31 31 31 31 32 32 32 31 31 31 32 32 32 32 32 33 33 33 32 31 31 31 30 31 32 34 36 37 39 40 41 41 42 42 42 41 41 41 41 41 41 41 41 42 42 42 42 42 42 42 42 42 41 41 39 38 37 37 37 37 37 37 36 35 35 35 34 34 33 32 33 33 33 32 30 29 29 29 30 32 32 32 31 31 31
29 30 30 30 30 30 31 31 30 29 29 30 31 31 32 33 33 32 30 29 29 30 30 30 32 34 36 37 38 39 39 40 40 41 41 40 40 40 40 40 40 40 40 40 41 41 41 41 41 41 41 41 40 39 38 37 37 37 36 36 36 36 35 35 34 34 33 34 34 33 33 33 33 33 31 30 29 28 29 30 31 32 32 32 31 31
28 28 29 29 29 30 31 30 29 27 26 27 30 31 32 31 30 29 28 28 29 30 31 33 34 35 36 37 37 38 38 39 39 40 40 39 39 39 39 39 39 39 39 39 39 39 39 39 39 39 38 38 37 36 36 36 36 36 36 36 36 35 34 34 34 34 34 35 35 35 35 35 34 33 32 31 29 29 29 30 31 32 32 32 32 31
28 28 29 29 29 30 31 29 27 26 26 28 30 31 30 29 28 28 29 30 31 32 33 34 34 35 35 35 36 37 37 38 39 39 39 39 38 38 38 38 38 38 38 39 39 38 38 37 37 37 37 37 37 37 36 36 36 36 36 36 35 35 35 35 35 35 36 36 35 35 35 35 34 34 33 32 30 30 30 31 31 31 31 32 32 32
27 28 29 29 30 30 29 27 26 25 26 28 29 29 29 28 29 29 30 31 32 33 34 34 34 34 34 34 35 36 37 38 38 38 38 37 37 36 36 36 37 37 38 38 39 39 39 40 40 39 39 39 39 38 38 37 37 37 36 36 36 35 35 35 35 34 33 32 32 32 33 33 34 34 34 33 31 30 30 31 31 31 31 31 31 31
26 28 29 30 30 29 26 25 25 26 26 28 29 29 29 29 29 30 31 32 33 33 34 34 34 33 33 33 34 35 36 37 37 36 36 35 35 35 35 36 36 36 37 37 38 39 40 41 41 41 41 41 41 40 39 39 38 37 37 36 35 35 35 34 33 31 29 28 29 30 32 33 33 34 34 33 32 31 31 31 31 31 31 31 31 31
27 30 30 29 28 26 26 27 28 29 30 30 29 28 28 28 29 29 31 32 32 33 33 33 32 32 31 32 33 34 35 35 35 34 34 34 34 34 35 35 36 36 36 36 37 38 38 39 40 40 41 41 41 40 39 39 38 37 36 35 34 34 34 34 32 29 28 28 29 31 32 32 33 33 33 33 32 32 31 31 31 31 31 31 31 31
27 29 29 28 27 26 28 29 31 32 31 30 28 27 26 27 27 28 29 30 31 31 31 30 30 31 31 32 33 34 34 34 34 33 33 33 34 35 35 36 36 36 36 36 36 36 37 38 38 38 39 39 39 39 38 37 35 34 33 33 33 33 34 33 32 30 29 30 31 32 32 32 32 32 32 32 32 32 32 31 31 31 31 31 32 32
28 27 28 28 29 28 27 28 31 32 31 29 27 26 25 25 25 26 27 29 30 30 29 29 29 30 31 33 34 34 34 34 34 34 34 35 36 36 37 36 36 35 35 35 35 36 36 37 36 36 36 37 37 37 36 35 33 32 31 32 32 33 33 33 32 31 30 31 31 31 31 31 31 31 31 31 31 31 31 31 31 31 30 31 32 32
26 27 27 27 27 27 26 27 29 30 28 26 25 24 24 24 24 23 22 24 27 28 28 28 28 29 31 32 33 34 34 34 34 35 35 36 36 37 36 36 34 33 33 33 34 34 34 34 34 34 34 35 35 35 35 34 32 32 31 31 32 32 32 32 31 30 30 30 30 30 30 30 30 30 30 30 30 30 30 30 30 31 31 32 33 32
24 25 24 23 23 23 24 25 26 25 23 20 19 19 21 23 25 24 22 20 22 25 26 27 28 30 31 32 33 34 34 33 33 34 35 35 35 34 32 30 29 29 29 29 29 30 31 32 32 32 33 33 33 33 33 32 32 31 31 31 30 30 29 29 29 28 28 28 28 28 28 28 28 28 28 28 28 29 29 29 30 31 32 32 31 29
24 23 22 20 19 19 19 20 20 19 18 17 15 14 17 23 26 26 24 22 22 24 25 27 29 31 33 33 33 33 32 32 33 34 35 34 32 29 26 25 24 25 26 27 28 29 30 31 32 33 33 33 33 32 32 31 31 30 30 29 29 28 28 28 28 27 27 27 27 27 28 28 27 25 25 25 25 26 27 28 29 30 30 29 27 25
20 19 17 15 15 16 18 17 16 16 18 20 20 21 24 27 28 27 24 22 22 24 25 27 29 31 33 33 32 32 31 31 32 33 33 30 28 26 24 24 25 26 27 29 30 31 32 32 33 33 34 33 33 32 31 31 30 30 29 29 28 28 27 27 27 27 27 27 27 28 28 28 26 24 23 22 22 22 23 24 25 25 25 23 21 20
15 14 11 10 12 17 21 21 21 21 23 26 27 28 29 29 27 24 21 20 21 23 26 27 29 31 32 32 31 31 30 30 30 30 28 25 24 23 24 26 28 29 30 30 30 31 32 32 33 33 33 33 32 32 31 31 30 29 28 27 26 25 25 25 25 25 25 26 26 27 28 27 27 25 24 22 21 20 19 19 19 19 19 18 18 18
18 16 10 11 13 18 24 25 24 25 27 28 29 28 27 26 24 22 20 18 19 22 21 19 19 22 27 32 32 29 28 27 25 23 22 23 24 25 26 28 29 30 30 30 30 31 32 32 32 32 32 32 32 31 31 30 28 27 25 24 24 25 26 27 28 27 26 25 25 25 24 25 25 25 24 23 22 21 19 18 18 18 18 18 18 18
23 21 16 13 14 19 26 27 27 27 27 28 28 28 27 24 22 20 17 17 18 18 16 11 9 11 14 25 30 29 27 24 22 22 23 25 28 30 30 29 29 29 29 29 29 30 31 31 31 30 30 31 31 30 30 28 27 25 25 25 26 27 29 30 30 29 27 26 24 23 22 22 22 21 21 21 21 20 19 19 19 19 19 19 19 19
26 25 22 17 17 21 26 27 27 27 28 28 27 27 25 23 21 19 17 18 17 15 12 10 9 9 9 10 20 30 27 25 23 24 25 28 31 34 32 30 28 27 27 27 28 29 29 29 29 30 30 31 31 30 29 28 26 26 25 25 26 27 28 29 28 27 25 24 23 23 23 23 23 23 23 23 22 21 21 21 21 21 21 21 20 20
27 27 25 22 22 25 26 27 27 27 27 26 25 22 21 20 18 18 18 19 19 18 15 11 10 10 10 12 22 30 29 27 26 25 25 27 31 34 32 28 25 24 25 26 28 28 28 29 30 31 31 30 30 29 29 28 27 26 26 26 26 26 27 27 27 26 24 22 22 22 24 26 27 27 27 26 25 24 24 23 23 22 22 22 22 21
27 27 26 25 25 25 26 27 28 28 26 24 23 22 21 19 19 19 20 22 23 24 23 18 15 15 19 23 29 32 30 29 27 26 25 27 30 31 28 24 22 22 24 26 28 28 28 29 29 30 30 30 30 30 29 28 28 29 29 29 28 27 27 27 27 26 25 23 23 23 24 25 27 27 27 27 26 26 25 24 24 23 23 23 23 22
28 28 28 28 27 25 24 26 27 27 25 24 23 22 20 20 21 22 24 25 26 26 26 22 20 23 27 28 30 32 32 30 27 25 23 23 24 25 23 20 20 22 24 27 28 27 27 26 27 27 26 26 26 26 28 29 31 32 32 32 32 31 30 29 29 28 27 27 26 26 25 26 26 27 27 27 27 26 26 25 25 24 24 23 23 23
28 29 30 30 29 26 24 24 23 24 24 24 22 21 22 23 23 24 27 27 27 26 25 24 26 29 31 31 33 34 33 31 29 26 21 14 15 19 21 20 21 22 23 25 26 25 24 23 24 25 26 27 28 29 31 32 33 34 34 35 34 34 32 31 30 30 29 28 27 26 25 25 26 27 27 27 27 27 26 26 25 25 25 24 24 24
30 30 31 30 28 26 24 23 24 25 26 26 26 27 28 28 28 28 28 28 28 27 28 29 31 33 33 32 32 32 32 31 30 26 19 11 10 15 21 21 21 21 21 23 24 24 24 25 27 28 28 29 29 30 31 32 33 34 35 36 35 34 33 32 30 29 28 26 25 25 25 25 26 26 26 27 27 26 26 26 26 26 25 25 24 24
31 30 30 29 26 24 24 25 26 28 30 31 31 32 32 31 31 30 30 29 29 29 28 30 30 29 29 28 28 29 29 28 25 20 13 7 10 17 22 22 20 19 22 24 25 26 27 27 28 27 27 28 29 30 30 31 33 34 35 34 33 32 30 29 27 26 25 24 24 24 24 25 25 26 27 27 28 28 28 28 28 27 27 26 26 25
32 32 30 28 27 26 27 29 31 33 34 34 33 33 32 31 30 30 29 28 27 27 27 25 21 18 20 22 24 25 25 22 18 14 11 7 10 18 24 23 20 20 23 26 26 25 25 26 27 27 27 27 28 29 29 30 31 32 32 31 29 28 26 25 24 23 23 23 23 24 24 26 27 28 29 29 30 30 30 30 29 29 28 27 27 26
35 35 34 31 30 30 31 32 34 34 34 33 32 31 30 28 28 27 26 25 24 23 22 16 10 10 15 19 20 20 19 16 13 13 15 11 11 16 23 23 22 21 22 24 25 24 24 25 26 27 27 28 27 27 27 27 28 28 28 27 26 26 26 26 25 25 25 25 25 26 26 27 29 30 31 31 32 32 31 31 30 29 29 28 28 27
37 36 34 31 30 30 31 32 33 33 33 31 30 29 28 26 25 23 22 22 22 20 16 11 10 11 12 13 13 14 16 15 16 18 19 17 12 12 18 22 21 20 21 22 23 23 23 24 26 27 27 27 26 25 24 24 25 25 26 27 28 29 29 29 29 28 28 27 27 27 28 29 30 31 32 33 32 32 31 31 30 29 28 27 27 26
34 33 30 28 28 29 31 31 31 31 30 30 29 28 27 25 22 19 19 21 22 20 13 11 11 11 11 9 10 14 17 18 19 21 21 19 11 8 17 20 20 19 19 21 23 24 24 23 24 25 24 24 23 22 22 23 23 24 25 27 29 30 31 31 30 29 28 27 26 27 29 30 32 33 33 33 33 32 31 30 29 28 27 26 26 25
30 29 28 27 28 29 29 30 29 29 28 28 28 27 26 24 21 20 21 23 23 19 13 11 11 11 10 9 12 17 19 20 21 21 21 17 12 12 20 20 19 18 18 17 20 22 22 22 21 20 21 21 21 21 22 23 24 25 26 27 28 28 29 29 28 27 26 26 26 28 30 32 33 33 33 32 32 31 31 30 29 28 27 26 25 24
28 28 27 27 27 28 28 28 28 27 27 27 27 26 25 23 22 22 24 24 23 19 14 12 11 10 9 10 11 12 13 18 20 21 20 14 10 13 20 19 18 17 17 12 10 12 15 17 18 18 18 19 21 22 24 25 25 26 25 26 26 27 27 27 26 25 25 26 27 30 31 32 32 32 31 31 30 29 29 28 27 27 26 24 24 23
28 27 27 27 27 27 27 27 26 26 26 26 25 25 24 23 22 22 23 23 23 21 19 15 13 13 11 9 8 6 6 15 20 20 20 16 13 15 19 17 16 18 17 13 8 6 8 10 14 18 17 19 21 23 24 24 24 24 24 25 25 26 26 25 25 24 25 27 29 30 31 31 30 29 28 27 26 26 26 26 26 25 25 23 22 22
27 26 26 27 27 27 26 26 25 25 25 24 24 23 23 22 22 22 22 22 22 22 21 20 19 19 17 12 9 8 8 17 22 22 22 19 18 19 18 16 16 18 19 18 12 7 7 5 11 18 19 21 22 23 23 23 23 23 23 24 25 25 25 24 23 24 25 27 29 30 30 29 27 26 25 23 22 23 24 25 25 25 25 23 22 22
26 25 26 26 26 26 25 25 25 25 24 24 23 23 23 22 22 22 22 21 21 21 22 21 21 20 20 17 15 14 16 21 23 24 24 21 18 18 19 17 17 18 20 20 17 13 10 7 10 16 20 21 21 21 21 21 21 22 22 23 24 24 24 23 23 25 26 28 29 29 27 26 24 23 21 19 18 20 23 24 24 25 25 24 22 21
25 25 26 26 26 25 25 25 25 25 24 24 23 23 23 22 22 22 21 21 21 22 22 22 22 21 19 15 14 16 21 23 24 25 24 22 20 19 20 18 17 17 17 16 16 16 13 11 10 10 12 18 21 20 19 20 20 21 21 22 22 23 23 23 24 25 27 29 29 27 25 24 22 21 19 16 14 16 19 21 22 23 25 24 22 21
25 25 25 25 25 25 25 25 25 24 24 24 24 23 23 23 23 22 22 23 23 23 24 24 24 24 22 18 14 14 20 25 27 26 26 24 22 20 19 18 18 17 15 12 10 9 7 10 11 9 8 11 16 18 18 18 19 20 20 21 21 22 22 24 25 26 27 28 26 24 23 22 21 19 18 16 13 9 10 14 17 20 23 24 23 20
24 24 24 25 24 24 24 24 24 24 24 24 24 23 23 23 24 24 24 25 25 25 26 26 26 26 26 25 23 22 25 28 30 29 28 26 24 22 19 19 20 20 15 12 9 7 6 7 10 11 10 8 9 13 17 19 19 19 19 20 21 22 23 25 26 26 25 24 23 21 20 20 19 17 16 16 15 11 5 2 9 16 21 23 23 21
23 23 24 24 24 24 24 24 24 24 24 24 24 24 24 24 25 26 26 27 27 28 28 28 28 28 28 28 29 30 31 32 33 32 30 29 26 23 21 21 23 23 19 14 11 9 8 8 8 9 8 7 6 8 12 18 20 19 20 20 21 22 24 25 25 24 22 21 19 18 18 17 17 16 14 15 16 16 15 12 7 7 13 16 18 19
23 23 24 24 24 24 24 24 24 24 25 25 25 26 26 27 27 28 28 28 28 28 28 28 28 28 29 30 32 34 35 35 35 34 32 29 27 26 25 24 25 24 22 19 16 13 8 7 7 7 6 6 8 11 15 17 18 18 20 20 21 21 22 22 21 21 20 19 17 16 15 15 15 14 14 15 17 18 18 18 16 14 12 10 10 10
22 22 23 24 24 24 24 24 25 25 26 26 27 27 28 28 28 27 27 26 26 26 26 27 27 28 30 32 33 34 35 34 33 32 30 28 27 26 25 23 23 23 22 20 18 14 9 7 6 7 7 7 9 12 16 16 16 17 19 21 21 21 20 18 18 19 18 17 16 15 14 13 13 14 15 16 17 18 18 18 17 17 17 17 16 15
22 23 24 25 25 25 24 25 26 27 27 28 28 28 27 27 26 26 25 25 25 25 26 26 27 28 29 30 30 30 30 29 27 26 26 27 27 26 25 23 22 21 19 16 14 12 11 10 9 9 8 7 7 8 11 14 16 17 18 15 15 15 15 16 17 18 16 15 14 13 13 12 12 13 15 17 18 18 17 17 17 16 16 16 16 17
23 24 24 25 26 26 26 27 27 28 28 27 27 26 26 25 24 24 24 25 25 25 25 26 27 27 27 27 26 25 24 23 23 24 26 27 28 27 25 24 21 18 15 14 14 14 15 14 12 12 12 10 9 10 11 14 17 18 17 13 12 15 16 16 16 15 14 13 13 12 12 11 12 13 16 18 19 19 18 18 17 17 17 17 16 15
24 24 25 26 26 27 27 27 27 28 27 26 26 25 25 24 24 24 24 25 25 25 25 25 26 26 24 23 22 21 21 22 23 24 25 26 26 25 23 19 16 14 13 14 15 16 15 14 13 12 12 12 10 9 10 14 17 18 16 15 15 15 14 13 14 14 14 13 13 11 11 10 11 13 16 19 20 20 20 20 19 19 19 18 18 17
24 25 25 26 27 27 27 27 26 26 25 24 24 24 24 24 24 24 24 24 25 25 25 25 24 22 20 19 20 21 22 22 23 23 22 22 21 19 16 15 14 15 15 15 14 14 14 14 13 13 14 14 12 10 9 12 15 17 16 15 13 8 4 7 11 14 13 13 12 11 10 10 11 14 18 20 21 22 22 22 22 21 21 21 20 20
25 25 26 26 26 27 26 26 25 25 25 24 24 24 25 24 24 24 24 24 25 26 26 24 23 20 18 17 18 20 21 21 21 20 18 17 14 12 12 14 15 16 16 14 13 12 12 12 12 13 13 13 13 12 10 11 13 15 15 12 8 5 3 6 10 13 13 12 11 10 10 9 11 15 19 22 23 23 23 24 24 24 23 24 23 23
25 25 26 26 26 25 25 25 25 25 25 24 24 24 25 25 24 24 23 24 25 25 25 22 19 16 12 14 17 19 20 19 18 16 14 11 10 11 12 14 15 15 15 14 13 12 10 10 11 12 13 13 13 12 11 12 12 11 9 6 5 5 5 7 9 11 10 10 10 10 9 10 12 15 18 20 22 23 23 24 24 24 24 25 25 25
25 25 25 25 25 25 25 25 25 25 25 24 24 25 25 25 25 25 24 24 24 23 22 20 17 12 8 11 14 16 16 16 14 12 10 10 11 13 14 14 14 14 15 14 14 13 12 11 11 12 12 11 11 12 12 11 9 7 6 6 6 6 6 6 8 9 9 9 9 9 9 11 13 15 16 17 19 21 23 24 23 23 23 24 25 26
25 25 25 25 25 25 25 25 25 25 24 24 24 25 25 25 25 25 25 24 22 20 19 18 16 13 11 12 13 12 10 10 11 11 11 12 14 15 15 15 15 15 15 14 14 14 13 13 12 11 10 8 7 7 8 8 7 6 6 6 6 6 7 8 9 9 9 9 8 8 9 11 13 15 16 17 18 20 22 24 25 24 24 24 25 25
25 25 25 25 25 25 25 25 24 24 24 24 25 25 26 25 25 24 24 23 21 19 18 16 15 14 13 14 14 12 11 9 10 11 13 14 15 16 16 16 16 15 15 14 13 13 12 11 9 9 9 7 5 4 5 7 8 7 7 6 6 6 6 8 9 9 9 9 10 10 10 11 12 13 14 15 16 18 20 23 25 25 25 25 25 25
25 25 25 24 24 23 23 24 24 24 23 24 24 25 26 26 25 24 22 21 19 17 16 15 14 12 10 11 12 13 12 11 11 12 13 14 14 15 16 16 15 15 14 14 12 11 10 8 5 4 7 9 8 6 6 7 7 7 7 7 7 6 6 7 8 9 10 11 12 13 14 13 13 14 15 14 13 14 18 21 23 25 26 26 26 26
25 24 24 24 24 23 23 24 24 23 23 23 24 24 25 25 24 22 21 19 17 16 16 15 14 11 9 9 11 12 11 11 11 11 12 13 14 15 15 15 15 14 13 11 9 7 7 6 3 3 8 11 11 9 7 7 7 7 7 7 7 7 7 7 8 9 10 12 13 15 16 15 15 16 17 15 13 13 16 18 21 23 25 27 27 28
25 24 24 24 23 23 23 24 23 23 23 23 23 24 24 23 22 21 19 18 16 16 16 16 15 12 10 10 11 12 11 11 10 10 12 13 14 14 14 14 14 12 10 7 5 3 3 4 3 2 6 11 14 13 11 9 8 7 6 7 8 8 8 8 8 9 11 12 14 15 16 16 16 16 16 15 12 10 11 13 16 19 22 25 27 28
Wind_Direction
295 297 298 300 300 300 299 299 299 300 300 300 301 302 303 304 304 303 302 300 298 297 295 294 293 294 295 297 298 299 299 299 298 297 296 295 295 294 293 293 292 292 291 291 290 289 288 287 286 286 285 285 284 284 283 283 283 282 283 284 285 286 286 287 286 285 283 281 279 277 275 276 277 277 276 272 268 264 262 260 258 257 255 253 251 248
296 297 298 298 298 298 297 297 297 298 299 301 302 304 305 305 305 303 301 298 296 294 293 293 293 295 296 298 298 298 298 298 297 296 296 295 295 294 293 293 292 292 291 290 289 288 287 286 286 285 284 284 284 284 283 283 283 284 284 285 285 286 286 285 285 283 282 282 280 279 278 276 276 276 276 275 273 271 268 265 262 258 255 253 252 250
298 297 297 297 297 296 296 296 296 296 298 301 303 304 305 304 302 300 298 296 295 294 293 294 295 297 297 298 298 298 297 297 296 295 295 295 294 294 293 293 293 292 292 291 290 289 287 286 285 284 284 283 283 283 284 284 285 286 286 286 285 285 285 285 284 284 284 283 283 282 281 279 277 276 275 274 274 273 272 270 266 261 256 254 252 251
297 297 297 298 297 296 295 294 295 296 298 301 302 302 301 299 296 295 294 295 295 295 295 296 297 297 298 298 297 297 296 296 295 295 295 294 294 294 294 294 294 294 294 293 292 291 290 289 287 286 286 285 285 285 285 286 287 287 286 286 285 285 285 285 285 285 285 283 282 281 280 279 279 278 276 275 273 272 271 270 268 264 258 255 253 251
296 297 298 299 299 297 295 293 294 296 299 300 300 298 296 293 292 293 295 296 296 297 297 297 297 297 297 297 296 296 295 295 295 295 295 295 294 294 295 295 296 296 296 296 296 296 295 294 293 292 291 290 289 289 289 288 288 287 286 286 286 286 286 286 286 285 283 281 280 279 278 277 277 276 274 273 271 269 268 268 267 265 261 258 255 252
297 298 300 301 300 298 296 295 296 299 301 301 299 296 293 293 294 296 297 298 298 298 298 297 297 296 296 295 295 296 296 296 296 296 296 295 295 295 295 296 296 297 298 298 299 299 299 298 297 296 294 293 292 290 289 288 287 286 286 286 286 286 286 286 285 283 282 281 281 281 280 278 276 274 271 270 268 267 265 265 265 265 264 261 258 253
298 299 301 302 300 298 295 296 298 301 302 301 299 297 296 296 297 298 299 299 299 298 297 296 296 295 295 296 296 297 298 298 297 297 296 296 295 295 295 295 296 296 297 297 298 298 298 298 297 296 294 292 291 289 288 286 285 284 283 284 285 285 285 284 283 283 284 286 287 287 286 283 280 276 272 269 267 265 264 264 264 264 265 263 260 256
299 299 299 299 297 295 294 295 297 300 300 299 298 297 297 298 298 298 299 299 298 298 297 296 296 296 296 298 299 299 299 299 298 297 296 296 295 295 295 295 295 295 295 295 295 294 294 294 294 294 293 292 291 289 287 285 283 282 281 282 283 284 284 283 284 285 288 289 289 288 286 285 282 279 276 272 268 266 264 263 263 263 263 263 261 258
296 296 295 293 291 291 292 293 295 296 297 295 294 295 297 298 298 299 299 300 300 299 298 297 297 297 298 300 301 301 300 299 298 296 296 295 294 294 294 294 294 294 294 293 293 292 291 291 291 291 292 292 292 290 288 286 284 283 282 282 283 283 284 285 286 288 288 288 287 285 284 283 282 280 278 274 271 268 266 264 263 262 261 261 261 258
292 291 291 289 288 288 290 292 293 294 294 292 291 291 293 295 298 300 301 302 301 300 297 296 297 299 301 302 302 301 300 299 297 296 294 293 292 292 292 292 292 292 293 293 293 292 292 291 291 290 290 289 289 288 287 288 287 285 284 283 283 284 286 287 288 289 288 287 286 285 283 282 281 280 278 276 273 270 267 265 264 263 261 261 260 257
289 287 287 288 288 288 288 290 292 294 294 293 291 290 290 293 297 301 302 302 301 299 296 296 297 300 302 303 303 302 300 299 298 296 294 293 292 291 291 290 289 290 291 293 293 294 294 293 292 290 289 287 286 286 286 287 287 286 285 284 285 286 288 289 289 289 288 287 286 285 284 283 281 280 279 277 275 272 269 266 264 264 262 261 260 257
287 286 286 287 289 291 292 293 295 296 297 296 294 293 293 296 299 302 301 299 297 296 297 298 300 301 302 302 302 301 299 298 297 296 294 293 292 291 290 288 288 289 292 294 296 297 297 297 296 295 293 292 291 290 289 289 288 288 287 287 287 288 289 289 288 288 288 288 287 287 286 284 281 279 278 278 277 274 270 267 265 264 262 260 257 254
284 284 285 287 291 295 298 300 301 301 300 298 296 296 298 300 302 301 297 293 292 294 298 301 302 301 300 299 299 298 297 296 295 294 292 291 290 289 288 288 290 294 298 300 301 300 300 300 299 298 297 295 294 293 293 292 291 291 290 290 290 289 289 288 287 287 287 288 288 289 289 287 284 280 278 279 279 276 271 267 264 261 258 255 253 252
285 288 291 295 298 301 303 303 303 300 298 297 296 296 298 300 300 298 293 289 290 295 300 302 302 300 299 298 297 295 294 294 293 291 289 287 286 287 290 294 298 301 303 302 301 300 299 299 299 298 296 295 294 294 294 293 293 293 292 292 292 292 292 292 291 289 288 287 287 289 290 291 289 286 285 285 284 278 271 265 261 259 256 254 254 254
297 301 301 301 303 304 303 302 300 297 296 295 294 295 296 296 295 292 289 289 293 299 302 302 301 299 298 297 296 295 294 293 291 290 289 287 288 292 298 302 304 303 302 300 298 297 297 297 296 295 294 293 293 293 293 293 293 294 295 296 298 300 302 303 303 301 297 293 289 287 287 288 289 290 291 292 290 285 277 272 268 266 265 265 263 261
310 310 304 302 302 301 301 300 298 297 295 294 294 294 294 292 290 287 287 291 298 302 303 303 301 299 298 298 297 296 295 294 292 292 293 294 295 297 301 303 303 301 298 296 295 295 295 295 294 293 292 292 292 293 293 294 296 298 300 303 307 311 312 313 313 312 310 306 300 295 290 286 285 286 287 288 288 286 283 281 280 278 277 275 272 268
309 307 303 299 298 299 299 298 297 295 294 294 293 291 290 286 284 285 289 295 300 303 303 302 299 299 298 299 299 298 298 297 297 297 298 297 297 298 300 301 299 296 295 293 293 293 293 293 293 292 291 292 293 294 296 297 300 303 306 309 311 313 313 313 312 312 311 310 308 304 299 293 287 284 285 288 289 288 285 283 282 281 279 277 274 271
305 302 301 298 297 298 298 298 296 294 292 291 291 289 286 283 284 287 293 299 302 303 302 299 296 294 296 297 298 298 300 300 300 298 297 295 295 296 297 297 294 292 291 291 291 292 292 292 291 291 291 292 294 296 299 302 305 306 308 308 309 310 311 309 307 306 304 303 302 301 299 300 299 298 299 298 297 293 289 285 282 280 278 276 274 272
301 300 298 298 297 297 296 295 293 291 290 290 290 290 290 290 294 299 302 303 303 301 300 297 293 291 291 291 294 297 299 300 299 297 294 292 292 293 294 293 291 290 290 291 292 293 293 293 292 292 292 293 295 297 301 304 306 307 308 309 309 310 310 308 304 300 297 295 294 295 296 298 300 300 300 300 297 293 289 284 281 278 276 275 273 271
298 297 296 296 296 295 293 291 290 290 291 293 295 297 299 303 307 308 306 304 302 300 299 297 293 291 291 291 292 295 298 298 297 294 290 288 288 289 290 291 292 292 292 293 294 295 295 294 293 293 293 294 296 298 302 305 307 309 310 311 311 310 308 306 303 301 299 298 297 296 296 296 297 297 297 296 294 290 287 283 280 277 275 273 271 269
296 295 294 294 293 291 289 290 292 295 299 303 305 307 308 310 309 307 304 303 301 299 298 295 292 290 290 290 291 292 294 294 291 288 286 285 284 285 289 293 296 296 295 295 296 297 296 295 295 295 297 298 301 304 306 308 309 310 310 309 308 305 303 301 300 300 300 300 299 296 295 294 294 293 292 291 289 287 284 282 279 276 274 272 269 267
293 292 292 291 288 287 289 294 301 307 310 311 311 310 308 307 305 303 302 301 300 298 295 292 289 288 288 286 286 287 287 286 284 282 282 281 281 286 293 299 301 299 296 296 298 299 299 298 298 299 300 302 304 306 307 308 309 308 307 305 303 301 299 297 295 294 293 292 292 292 292 291 291 290 288 287 286 285 283 282 280 277 275 272 269 266
291 290 290 288 286 288 294 302 308 310 310 309 306 303 302 301 300 300 299 299 297 295 292 290 288 286 283 281 280 281 283 282 280 279 280 280 285 293 300 304 304 300 296 296 298 300 300 300 299 299 300 302 303 305 306 306 306 304 302 301 300 300 299 297 295 292 289 288 288 289 289 289 289 287 286 285 284 283 282 281 279 278 275 272 269 266
293 291 289 288 290 296 304 307 308 308 307 306 304 302 300 299 298 297 297 295 294 292 290 288 286 283 280 279 281 283 284 282 280 280 281 281 290 297 302 305 304 299 296 296 298 300 300 299 298 298 299 300 301 302 302 302 301 300 299 299 300 301 301 299 297 295 292 291 291 291 290 289 288 287 285 284 283 281 280 279 278 276 274 271 268 265
296 294 292 293 298 304 307 307 307 307 306 305 304 302 302 300 299 298 296 294 292 290 288 286 283 282 284 287 288 288 287 285 286 289 291 292 296 298 301 303 302 298 295 296 298 299 298 298 298 299 299 299 299 300 300 299 298 298 299 301 303 305 306 307 306 304 302 300 297 295 292 291 289 288 286 284 282 280 278 276 274 273 270 268 266 264
298 296 296 299 303 306 306 306 306 305 304 304 303 303 303 303 302 300 297 294 292 290 289 286 283 286 292 294 292 289 288 292 299 302 301 300 299 299 300 302 300 296 295 296 297 298 298 297 298 299 299 298 298 298 297 297 297 299 302 306 310 312 312 311 310 307 304 301 298 296 294 293 291 290 288 285 282 280 277 274 271 269 267 265 263 261
299 298 299 302 304 306 306 306 305 305 304 303 303 303 304 303 302 299 295 295 294 294 292 289 289 291 292 290 287 288 294 304 309 309 306 302 298 296 299 301 299 296 295 295 297 298 298 297 297 298 297 297 296 297 297 297 299 302 306 310 312 312 311 309 307 305 302 299 297 296 296 295 294 291 289 286 282 279 275 272 268 266 263 262 260 258
299 300 302 304 306 307 307 307 306 305 305 304 304 304 304 302 299 296 294 295 296 295 291 289 289 289 287 282 287 296 303 308 309 308 307 302 295 291 297 300 299 297 297 298 299 299 297 295 295 295 295 295 296 297 299 301 303 306 307 308 307 307 307 306 304 302 300 298 298 298 298 296 294 292 289 286 283 279 275 270 266 263 260 257 255 253
300 302 304 305 307 308 308 307 306 305 305 305 305 304 303 300 296 292 293 295 295 293 288 285 284 285 287 292 299 303 305 305 306 307 309 303 295 291 296 298 299 299 302 303 303 301 298 295 293 293 294 296 298 300 302 303 304 304 304 303 303 303 303 302 301 300 299 299 300 300 299 297 295 292 290 287 284 280 275 270 264 260 256 252 249 247
304 305 306 307 308 309 308 307 306 305 305 304 304 303 302 298 293 291 292 293 293 291 290 288 288 292 299 305 307 304 301 302 305 309 310 306 296 293 297 297 298 302 307 309 307 302 298 297 296 295 296 299 301 302 302 302 302 302 302 302 302 303 302 302 301 300 301 302 303 302 300 298 296 294 292 291 287 282 276 269 261 255 249 245 241 239
307 307 308 309 309 309 308 307 306 305 305 304 303 302 301 297 293 291 291 291 291 291 293 295 298 302 306 308 305 300 298 302 305 308 308 301 293 291 295 297 299 303 307 309 307 301 301 299 299 299 300 301 301 301 300 300 300 301 303 304 304 304 303 302 302 303 305 306 305 304 303 301 299 298 297 294 289 282 274 266 257 248 241 236 233 231
308 308 309 309 309 308 307 306 305 305 304 303 302 301 299 297 295 292 291 291 291 292 293 296 298 299 300 297 293 291 294 299 302 304 303 296 291 290 293 296 300 303 305 301 297 292 297 301 302 302 301 301 300 299 299 299 301 302 304 305 305 304 303 303 305 307 308 309 308 307 306 305 304 303 302 298 289 279 271 262 252 241 233 227 224 223
308 308 308 308 308 307 306 306 305 305 304 303 302 301 299 298 296 294 292 291 291 292 293 295 296 296 295 293 290 289 291 295 298 300 299 295 291 291 294 297 300 302 302 298 291 284 284 289 299 301 301 299 298 298 298 300 302 304 305 305 304 304 304 306 308 310 311 311 310 310 310 310 310 311 312 307 293 278 268 259 247 235 226 219 216 217
308 308 308 308 308 307 306 306 305 305 304 303 302 301 300 299 297 296 295 294 293 292 292 292 292 293 294 293 292 291 291 293 296 297 297 294 292 292 294 297 300 301 301 297 291 287 285 287 293 298 299 299 298 297 298 300 303 304 305 304 304 304 305 308 311 312 312 312 312 312 312 315 317 320 325 326 309 283 268 258 243 229 220 214 210 210
309 309 309 309 309 308 307 307 306 305 304 303 302 301 301 300 299 298 297 295 294 292 291 289 289 289 290 291 291 292 292 293 294 294 294 291 290 291 294 297 300 301 299 295 292 290 287 289 291 294 296 298 297 297 298 301 303 304 304 303 303 304 305 307 310 311 312 312 312 312 315 319 323 328 337 349 347 317 273 253 236 223 215 211 208 208
309 309 309 310 310 309 308 307 307 306 305 304 303 303 302 301 299 298 297 295 294 292 290 288 286 285 285 285 286 287 289 290 291 290 288 287 287 290 294 296 298 298 295 292 290 288 287 288 291 292 293 294 297 300 302 304 305 305 304 303 303 303 303 305 307 310 312 311 311 314 321 325 329 335 347 4 18 28 33 224 217 214 212 212 212 213
309 310 310 311 310 310 309 308 308 307 307 306 304 304 302 301 299 298 296 294 292 291 290 287 285 283 282 281 281 282 283 285 285 285 283 283 285 289 293 294 294 292 289 287 287 288 287 288 290 292 292 292 297 302 305 307 307 306 304 304 303 302 301 302 306 311 315 314 315 320 327 331 335 343 358 16 32 46 58 70 100 163 193 204 210 214
311 311 311 311 311 310 309 309 308 307 307 306 305 304 303 301 299 297 296 293 290 289 288 288 286 284 283 281 280 279 280 280 280 281 281 283 286 288 289 289 288 286 283 281 282 284 285 288 293 297 297 295 296 299 302 306 307 306 305 304 303 300 298 302 309 317 321 321 323 328 334 338 345 356 11 26 36 44 50 58 69 84 106 129 150 170
312 312 311 311 311 310 309 308 307 307 306 305 304 303 302 300 298 296 294 292 290 289 287 287 287 286 285 284 282 281 280 279 280 281 284 285 285 284 283 282 282 281 280 277 277 279 284 291 298 300 301 299 298 299 301 302 303 303 305 305 303 300 299 306 316 324 327 329 332 336 339 345 356 9 21 32 36 37 37 43 53 64 76 85 92 99
312 312 311 311 310 309 308 307 306 306 305 304 303 302 301 300 299 298 296 295 294 293 292 290 289 288 287 285 283 282 282 283 284 286 287 286 284 280 278 278 278 279 279 280 284 290 296 298 297 295 294 295 298 300 300 300 299 301 303 304 303 302 305 314 323 329 334 339 342 343 343 351 5 19 31 37 38 36 34 37 43 53 63 71 76 79
312 311 311 310 310 309 307 306 306 305 304 303 302 302 303 302 302 302 301 300 300 299 297 296 295 293 290 287 286 286 288 290 291 290 288 286 283 280 277 276 277 281 288 296 300 301 299 295 292 290 290 292 294 296 296 296 296 297 298 296 295 299 306 316 326 335 344 351 353 352 352 359 13 28 38 42 42 41 41 43 45 49 58 65 69 71
312 311 310 310 309 309 308 306 305 305 304 304 303 304 304 304 304 304 304 303 303 302 301 300 299 297 294 292 292 295 296 295 293 290 288 286 284 282 281 281 286 295 303 303 300 295 291 288 287 288 290 292 294 295 293 293 294 294 292 290 292 298 305 316 328 341 353 359 1 0 1 8 21 35 45 47 47 47 49 50 52 53 57 62 65 68
311 310 309 309 308 308 307 307 306 306 306 306 305 305 305 305 305 304 304 304 304 303 303 301 299 297 295 297 300 302 301 298 295 292 290 288 287 288 290 295 300 301 299 294 290 286 285 284 283 284 287 289 290 289 288 291 293 292 289 288 293 301 311 322 331 341 353 2 7 8 10 17 31 45 52 53 53 53 53 54 56 58 60 62 64 66
310 309 309 308 309 309 309 309 308 308 308 308 307 306 306 305 305 304 304 303 303 303 302 301 298 297 297 300 304 304 303 301 299 296 293 294 296 300 305 306 303 298 292 285 281 282 284 284 283 284 286 287 287 287 287 288 288 286 285 289 297 309 315 317 325 334 348 3 11 15 18 28 44 54 58 57 55 54 54 56 57 59 62 66 68 70
310 310 310 311 311 311 311 310 310 310 309 309 308 307 307 307 307 306 304 303 302 301 301 300 299 300 302 304 305 305 304 303 301 301 302 307 313 315 314 311 306 301 295 287 282 280 282 285 288 290 291 289 286 284 282 282 283 286 291 304 316 317 314 316 326 334 344 360 10 17 26 39 53 60 60 57 54 52 53 54 56 58 62 66 69 71
312 312 312 312 312 312 311 311 311 310 310 310 309 308 308 308 308 307 304 303 301 299 299 300 302 303 302 304 304 304 303 304 306 312 320 326 327 323 319 315 310 305 299 292 286 281 279 281 287 293 296 294 288 281 276 280 288 302 321 330 333 336 339 340 342 346 355 3 11 19 33 49 59 64 63 59 54 52 53 54 56 58 61 66 69 72
313 313 312 312 312 311 311 311 311 311 311 310 310 309 309 308 308 307 305 303 301 299 300 303 305 304 302 301 301 302 303 308 316 325 331 330 327 324 322 319 315 310 303 295 287 280 276 277 284 293 300 299 294 291 294 306 317 327 330 336 342 349 356 356 356 0 12 18 20 26 40 53 62 66 66 64 58 54 52 54 57 60 63 67 71 74
313 312 312 312 311 311 311 311 311 311 311 310 310 310 310 309 308 307 306 304 303 303 305 308 308 305 302 301 302 305 311 318 326 330 330 328 327 326 325 323 320 316 310 301 290 280 274 273 283 302 314 314 310 312 322 331 334 336 338 345 350 356 358 356 1 13 29 38 43 46 51 58 64 68 69 67 63 57 53 52 55 59 64 69 73 76
311 311 311 311 310 310 310 311 311 311 310 309 309 309 310 309 308 307 305 304 305 307 309 310 308 306 303 304 308 314 320 326 328 329 328 329 329 328 328 326 324 321 317 309 297 282 267 257 270 340 357 353 344 331 324 327 334 340 348 354 359 0 358 357 6 23 42 52 57 60 61 63 66 70 72 71 67 60 56 53 53 58 64 69 73 77
311 310 310 310 310 310 310 310 310 310 309 308 308 309 309 310 309 307 306 307 309 311 312 311 309 306 306 309 316 323 328 329 328 328 329 330 331 331 330 330 329 328 324 318 302 274 243 217 195 38 25 20 14 3 348 337 338 346 357 3 5 4 1 359 12 31 50 57 61 63 64 63 65 68 72 72 70 65 60 55 53 55 63 69 74 77
311 310 310 310 310 310 309 310 309 309 308 308 308 308 308 308 308 308 310 313 315 316 314 313 311 310 312 317 322 326 328 327 326 327 329 332 333 333 333 333 332 332 329 324 310 280 214 178 152 75 36 27 27 26 18 2 352 351 359 2 5 6 4 5 20 40 54 59 62 63 63 61 60 62 68 72 72 67 61 56 51 52 62 71 75 78
Height
665 663 661 660 658 656 653 652 651 649 645 644 642 640 639 637 636 634 633 632 630 628 626 624 622 620 619 617 615 614 612 610 609 607 605 603 601 599 598 596 594 593 591 589 588 586 585 583 582 580 579 578 577 576 574 574 572 571 571 570 569 569 568 567 566 565 565 564 564 563 562 562 561 560 559 559 558 558 558 558 558 559 559 559 559 560
664 662 660 659 658 655 651 650 649 648 645 643 641 640 638 636 634 633 631 630 628 626 624 622 620 618 616 614 613 612 610 608 606 604 602 600 599 597 595 594 592 590 588 587 585 584 582 580 579 578 576 575 574 573 572 570 569 569 568 567 567 566 565 564 563 563 562 561 560 560 559 559 558 558 557 556 556 555 555 555 555 555 556 556 556 557
664 661 659 658 656 654 650 648 647 646 644 642 640 639 638 635 633 631 629 628 626 624 622 620 618 616 614 613 611 609 607 605 604 602 600 598 596 594 593 591 589 587 585 584 582 580 579 577 576 574 573 572 571 570 569 568 567 566 565 564 564 563 563 562 561 560 559 559 558 557 556 556 555 554 554 554 553 553 552 553 553 553 553 553 553 554
664 660 658 656 654 652 650 647 645 644 643 641 639 638 636 634 631 629 627 626 624 622 620 619 617 615 613 611 609 607 605 603 601 599 597 595 593 591 589 588 586 584 582 581 579 577 576 574 573 572 570 569 568 567 566 565 564 563 562 562 561 560 560 559 558 557 556 556 555 554 554 553 552 552 551 551 550 550 550 550 550 550 550 550 550 551
663 660 658 656 653 650 648 647 645 643 641 639 638 636 634 632 629 627 625 624 622 620 618 617 615 613 611 609 606 604 603 600 599 596 594 593 591 589 587 585 584 582 580 578 577 575 573 572 570 569 568 566 565 564 563 562 561 560 560 559 559 558 557 556 555 554 554 553 552 551 550 550 549 549 549 548 548 548 548 548 548 547 547 548 548 548
662 660 658 656 653 650 648 646 644 642 640 638 636 634 632 629 627 625 624 622 620 619 617 615 613 611 609 607 604 602 600 598 596 594 592 590 588 586 585 583 581 580 578 576 575 573 571 570 568 567 565 564 563 562 561 560 559 558 557 556 556 555 554 553 552 551 550 549 549 548 547 546 546 546 546 545 545 545 545 545 545 545 545 545 545 545
661 659 658 655 653 650 648 645 643 641 639 636 633 631 629 627 626 624 623 621 619 617 615 613 611 609 607 604 602 600 598 596 594 592 590 588 586 584 583 581 579 578 576 575 573 572 570 568 567 565 563 562 561 559 559 558 556 555 554 554 553 552 551 550 549 548 547 547 546 545 544 543 543 542 542 542 542 542 542 542 542 542 542 542 542 542
659 657 657 655 652 649 647 644 642 639 637 634 632 629 627 625 624 623 621 620 618 616 614 611 609 607 605 603 600 598 596 594 592 590 588 586 584 582 581 579 577 576 574 573 571 569 568 566 564 563 561 559 558 557 555 554 553 552 552 551 550 549 548 547 546 545 545 544 543 542 541 540 539 539 539 539 538 539 539 539 539 539 539 539 539 539
659 656 654 653 651 647 643 640 639 638 636 634 631 629 626 624 622 621 619 617 616 614 612 609 607 604 603 601 599 597 595 593 591 589 586 584 582 580 579 577 575 573 572 570 569 567 565 564 562 560 559 557 555 554 552 551 550 549 549 548 547 546 545 544 543 543 543 542 541 540 539 538 537 536 536 535 535 535 535 535 536 536 536 536 536 536
658 655 652 649 647 645 641 637 635 634 634 632 630 629 627 624 621 619 616 614 613 612 611 609 606 603 600 599 597 595 593 591 589 587 585 583 581 579 577 575 573 571 569 568 566 564 562 561 559 558 556 554 552 551 550 548 547 546 546 545 544 544 543 542 541 540 540 539 538 537 536 535 534 534 533 533 532 532 532 532 532 533 533 534 534 534
655 652 649 645 643 641 639 637 634 632 632 631 629 628 626 624 622 618 615 612 610 610 609 607 605 602 599 597 595 594 592 590 587 585 583 580 578 576 574 573 571 569 568 566 564 562 560 558 556 555 553 552 550 549 547 546 545 544 543 543 542 541 540 540 539 538 537 537 536 534 534 533 532 531 531 530 529 529 529 529 529 530 530 531 531 531
652 649 646 643 640 639 637 635 634 632 631 630 628 626 624 623 621 619 615 612 609 608 606 604 603 601 599 597 595 593 591 589 586 583 580 578 576 574 572 570 568 567 565 563 561 559 558 556 554 553 551 550 548 547 545 544 543 542 541 540 540 539 538 538 537 536 535 534 533 532 531 530 529 529 528 528 527 527 526 527 527 527 528 528 529 529
649 646 643 641 639 638 636 634 633 632 631 630 628 625 622 620 619 618 615 612 609 607 605 603 600 599 598 597 595 592 590 587 584 581 579 576 574 572 570 568 566 564 563 561 559 557 556 554 553 551 549 548 546 545 544 542 541 540 539 539 538 537 536 535 534 534 533 532 531 530 529 528 527 526 526 525 524 524 524 524 525 525 526 526 526 527
646 644 642 640 638 637 635 634 633 631 629 628 626 624 621 619 617 616 614 611 608 606 604 602 599 597 595 594 593 591 589 586 583 579 576 574 572 570 569 567 565 563 562 560 558 556 554 553 551 549 547 546 544 543 542 541 539 538 537 536 536 535 534 533 532 532 531 530 529 528 527 526 525 524 524 523 523 522 522 523 523 524 524 524 525 525
646 644 642 639 637 635 634 633 631 629 627 625 624 622 619 617 615 614 612 609 606 604 603 601 598 595 593 592 591 589 587 584 581 577 574 572 570 569 568 565 564 562 561 559 557 555 553 552 550 548 545 544 542 541 540 539 538 537 535 535 534 533 532 531 530 529 528 528 527 526 525 524 524 523 522 521 521 521 521 521 521 522 522 523 523 524
647 645 642 639 637 635 633 632 630 628 625 623 622 620 618 615 613 611 610 607 605 603 602 599 596 592 589 588 588 588 586 583 579 576 573 570 569 567 567 565 563 560 559 558 556 554 552 550 549 546 544 542 540 539 538 537 536 535 534 533 532 531 530 529 528 527 526 525 524 524 523 522 521 521 520 520 520 520 519 520 520 520 520 521 521 522
647 645 642 639 636 633 632 630 629 626 624 622 620 618 616 614 611 609 608 606 604 602 601 599 596 592 587 584 583 584 584 582 579 575 573 569 566 565 565 564 562 559 557 555 554 552 550 549 546 544 542 540 539 538 536 535 534 533 532 531 530 529 529 528 526 525 524 524 523 522 521 520 520 519 519 519 519 518 518 518 519 519 519 520 520 520
646 644 641 638 635 632 630 629 627 625 622 620 618 615 613 611 610 608 607 605 604 602 600 599 596 593 589 583 581 581 583 581 578 574 571 567 564 562 563 562 560 557 555 553 552 550 549 547 545 543 540 539 537 536 534 534 533 532 531 530 529 528 527 526 524 523 522 522 521 520 519 519 518 518 517 517 516 516 516 517 517 517 518 518 518 518
644 643 640 638 634 632 630 628 626 623 621 618 616 614 612 610 609 608 606 604 603 601 599 597 595 592 589 584 581 580 581 580 577 574 569 565 561 559 560 560 558 555 553 551 549 548 547 545 543 541 539 537 536 534 533 532 531 530 529 528 527 526 525 524 523 522 521 520 519 519 518 517 516 516 515 515 515 515 515 515 515 516 516 516 516 516
644 641 640 638 635 632 629 626 624 622 620 618 616 614 612 610 609 607 605 604 602 600 598 596 594 590 588 584 581 579 580 579 577 573 568 563 559 557 558 557 556 553 551 549 547 546 545 543 541 539 538 536 535 533 532 531 529 529 528 527 526 525 524 523 522 520 519 518 518 517 517 516 515 515 514 514 514 514 514 514 514 514 514 514 514 514
643 640 638 637 634 631 627 624 622 621 620 618 616 614 612 610 608 606 604 602 600 598 596 594 592 589 587 584 580 578 578 578 575 571 565 561 557 555 555 555 554 551 548 546 545 545 544 542 540 538 536 535 534 532 531 529 528 527 526 525 524 523 522 522 521 519 518 517 516 516 515 514 514 514 513 513 512 512 512 512 512 511 512 512 512 512
642 638 636 635 633 629 626 623 622 621 620 619 617 615 612 610 607 604 602 600 598 596 594 592 590 587 585 582 579 577 576 575 573 569 564 559 554 553 553 553 552 549 547 545 544 543 542 540 539 537 535 534 532 531 530 528 527 526 524 523 522 521 520 519 518 517 516 516 515 514 513 513 512 512 511 511 510 510 510 509 509 509 509 509 509 509
640 637 634 632 630 627 625 623 621 620 619 618 616 614 611 609 607 604 601 599 597 595 593 590 588 585 582 579 576 574 573 571 569 566 563 558 553 551 552 552 551 549 546 544 543 542 540 539 537 536 534 533 532 530 529 528 526 524 523 521 519 519 518 517 516 515 514 513 513 512 511 511 510 510 509 509 509 508 508 507 507 506 506 506 507 507
638 635 632 629 627 625 624 622 620 619 617 616 614 612 610 608 605 603 600 598 596 594 591 588 585 581 578 575 573 571 569 568 566 564 562 558 554 551 551 551 550 547 544 543 542 541 539 537 535 534 533 532 531 529 528 527 525 523 521 519 518 517 515 514 513 512 511 511 510 510 509 509 509 508 508 507 506 506 505 505 504 504 504 504 504 504
636 633 630 627 625 624 623 621 619 618 616 614 612 610 608 605 603 601 599 597 594 592 589 586 582 578 575 573 570 568 566 565 564 563 561 558 554 550 550 550 549 547 543 541 541 540 538 536 534 533 532 530 529 528 527 525 523 521 519 518 516 515 514 513 511 510 510 509 509 508 508 507 506 506 505 504 504 503 503 502 502 502 501 501 501 502
634 631 628 626 624 623 621 620 618 617 615 613 611 609 606 604 602 599 597 595 593 590 587 584 580 576 573 571 569 566 565 564 564 563 561 558 554 550 549 549 549 546 542 540 539 539 537 535 533 531 530 529 528 526 525 524 522 520 518 516 515 514 512 511 510 509 509 508 507 506 505 505 504 503 502 501 501 500 499 499 499 499 499 499 499 499
632 629 626 624 623 621 620 618 616 614 613 611 610 608 606 603 601 598 595 593 591 589 586 583 579 575 572 570 567 565 564 563 563 562 560 558 554 550 547 548 547 545 542 539 538 537 536 534 531 530 529 527 526 524 523 522 520 519 517 515 514 512 511 510 509 508 507 506 505 504 503 502 501 500 499 498 497 496 495 495 495 495 495 495 495 495
629 627 625 623 622 620 618 616 614 613 611 609 608 606 605 603 600 597 594 592 590 588 585 582 578 574 571 568 565 564 563 563 562 561 560 558 554 550 547 547 546 544 542 539 536 535 534 533 531 529 527 525 524 523 522 520 519 518 516 515 513 511 510 509 507 506 505 504 503 502 501 499 498 496 494 493 492 491 491 491 491 491 492 492 492 492
627 625 623 622 620 618 616 614 613 611 609 608 606 605 604 602 599 596 593 591 589 587 584 580 577 574 570 566 564 563 562 562 561 560 559 557 553 549 547 547 545 544 542 538 534 532 531 530 529 528 526 524 523 522 520 519 518 517 515 514 512 511 509 507 506 505 504 502 501 500 499 497 494 493 491 489 488 487 487 487 487 488 489 489 489 489
624 623 621 619 618 616 614 613 611 609 607 606 604 603 602 600 598 595 593 591 589 586 582 579 576 573 570 567 564 562 560 560 560 560 559 557 553 549 547 546 545 544 542 539 535 529 526 526 527 527 525 523 522 521 520 519 517 516 514 512 511 509 508 506 504 503 502 501 499 498 495 493 491 489 487 485 484 483 483 483 484 484 485 485 486 486
623 621 619 617 616 614 613 611 609 607 606 604 603 601 600 598 596 594 592 590 588 585 582 579 576 574 572 569 566 562 559 559 559 560 559 557 552 549 547 546 544 543 543 542 538 532 525 522 523 524 524 523 521 520 519 518 516 514 513 511 509 508 506 505 503 502 500 499 497 495 492 490 488 485 484 482 480 479 479 479 479 481 481 482 483 483
621 619 618 616 614 613 611 609 608 606 604 602 601 599 598 596 594 593 591 589 587 585 582 579 576 574 573 571 568 564 560 558 559 559 559 556 552 548 546 545 543 542 541 542 541 537 530 523 521 522 523 522 521 519 518 516 515 514 512 510 509 507 505 504 502 500 499 497 494 492 489 487 484 483 481 479 477 475 474 474 475 477 478 479 479 480
620 618 616 615 613 611 610 608 606 604 602 600 599 597 596 594 593 591 589 588 586 584 582 579 576 574 571 569 567 564 561 559 558 558 558 555 551 547 545 544 542 541 540 539 539 537 533 527 523 521 521 520 519 518 516 515 514 513 512 510 508 505 504 502 501 499 497 494 492 489 487 484 483 480 478 476 474 472 471 470 471 473 474 475 476 477
619 617 615 614 612 610 608 606 604 603 601 599 597 596 594 593 591 589 588 586 585 583 581 579 576 574 570 568 564 562 559 558 558 557 556 554 550 547 544 543 542 540 539 537 536 534 532 528 525 523 520 518 517 517 516 514 514 512 511 509 507 505 503 501 499 498 495 493 490 488 485 484 481 479 477 474 472 469 468 467 468 469 470 472 473 474
618 616 614 612 610 608 606 604 603 601 599 597 596 594 593 591 589 588 586 585 583 582 580 578 576 573 570 567 564 560 558 556 556 556 555 553 550 546 543 541 541 540 539 536 534 532 530 527 525 523 521 518 516 515 515 514 513 512 510 509 507 505 503 501 499 497 494 492 489 487 485 483 481 479 476 473 470 468 465 464 465 466 468 469 471 472
616 614 613 611 609 607 604 603 601 599 597 596 594 593 591 589 588 586 584 583 581 579 578 576 574 572 569 567 564 560 557 555 554 553 552 551 549 546 543 540 540 540 539 536 533 531 529 526 524 523 521 518 515 514 513 513 513 511 510 508 507 505 503 501 499 497 495 492 489 488 486 484 481 479 476 473 470 467 465 464 464 465 467 468 469 470
615 613 611 609 608 606 603 601 599 598 596 594 592 591 589 588 586 584 582 580 579 577 575 573 571 569 567 565 562 559 556 553 552 550 549 549 547 545 543 540 539 539 538 535 532 530 528 526 524 522 520 519 517 514 513 512 512 511 509 508 506 504 502 500 499 497 495 493 490 488 486 484 482 479 477 474 471 468 466 465 465 466 467 468 469 470
614 612 610 608 607 604 602 600 598 596 595 593 591 589 587 585 584 582 580 578 576 574 572 570 568 565 564 562 559 556 554 551 549 548 547 546 545 544 542 540 538 537 536 534 532 530 528 526 523 521 519 518 517 516 514 513 512 510 509 507 505 504 502 500 499 497 495 493 491 489 487 485 483 480 478 475 472 470 469 468 467 467 468 468 469 469
614 611 609 607 605 604 601 599 597 595 594 592 589 588 585 584 581 579 577 575 573 571 569 567 565 562 560 558 555 553 551 549 547 546 545 544 544 542 541 539 536 534 534 532 531 529 527 525 524 522 520 519 517 516 515 514 513 511 509 507 504 503 501 500 498 497 495 493 491 489 488 486 484 482 479 476 474 473 471 470 470 469 469 469 469 469
613 610 608 606 605 603 601 599 596 594 592 590 588 586 584 581 579 577 575 573 571 569 567 565 563 560 557 555 553 550 549 547 546 544 544 542 541 540 539 536 534 533 531 530 529 528 527 526 524 523 522 520 518 516 515 514 513 511 510 507 504 502 500 499 498 497 495 493 492 490 489 487 485 483 480 478 476 475 474 473 472 471 471 470 470 470
612 610 608 605 604 602 600 598 595 593 591 589 586 584 582 580 578 575 573 571 569 567 564 562 560 557 554 552 550 549 547 546 544 543 542 540 539 537 536 534 533 531 530 529 529 528 528 526 525 524 522 521 519 518 516 514 513 512 510 508 505 502 500 499 498 497 495 494 492 491 490 488 486 484 482 480 479 478 477 476 475 474 473 472 472 472
611 609 607 604 603 600 598 596 594 592 589 587 585 583 580 579 576 574 571 569 567 564 562 560 558 554 552 549 548 547 545 544 543 541 539 538 537 535 534 533 532 531 530 529 528 528 527 526 525 524 522 521 520 518 516 514 513 511 510 508 505 503 501 499 499 497 496 494 493 492 491 489 488 486 484 482 481 480 479 478 477 476 475 475 474 474
611 609 606 604 602 599 597 595 592 590 588 586 584 581 579 577 575 573 570 568 565 563 560 558 556 553 550 548 546 544 543 542 540 539 538 536 535 534 533 532 532 531 530 529 528 527 526 525 524 523 522 521 520 519 516 514 512 510 509 507 505 504 502 500 499 498 496 495 494 493 492 491 489 487 485 484 483 482 481 480 479 479 478 478 477 477
610 608 605 603 600 598 596 594 591 589 587 585 582 580 578 576 574 572 569 567 564 561 559 557 554 552 549 547 545 543 541 539 538 537 536 535 534 533 533 532 531 530 529 528 527 526 525 524 523 522 522 521 520 518 516 514 512 510 508 507 505 504 503 502 500 499 498 497 496 495 494 492 491 489 487 485 485 484 483 482 482 481 481 480 480 479
609 607 604 602 599 597 595 593 590 588 586 584 581 579 576 574 573 571 568 565 563 560 558 555 553 551 548 546 544 542 540 538 536 535 535 534 534 533 532 531 530 529 528 527 526 525 524 523 522 521 521 520 519 517 515 513 511 509 507 506 505 505 504 503 502 501 499 498 497 496 495 494 492 490 488 488 487 487 486 485 485 484 484 484 483 483
608 606 603 601 599 596 594 592 589 587 585 582 580 578 575 573 571 569 567 564 562 559 556 554 553 550 548 545 543 541 539 537 536 535 534 534 533 532 531 530 529 529 527 526 525 524 524 523 522 521 520 519 518 516 514 512 510 509 508 507 506 505 504 503 502 501 500 499 499 498 496 495 493 491 490 490 490 489 489 488 488 488 488 487 487 486
607 605 603 600 598 595 593 591 589 586 584 581 579 576 574 572 570 568 565 563 560 558 555 554 552 550 548 545 543 541 539 537 535 534 534 533 533 532 531 529 529 528 526 525 524 524 523 522 522 521 520 519 517 515 513 512 511 510 509 508 507 506 505 504 503 502 501 501 500 499 498 496 495 493 493 492 492 492 492 491 491 491 491 491 490 490
606 604 602 599 597 594 592 590 588 585 583 580 578 575 573 571 569 566 564 561 559 557 555 553 551 549 547 544 543 541 539 537 536 535 534 533 532 531 530 529 528 526 525 524 523 522 522 522 521 521 520 519 517 515 514 513 512 511 509 509 508 507 506 505 504 503 503 502 501 500 499 498 497 496 495 494 494 495 495 495 494 494 494 494 494 494
606 604 601 599 596 594 591 589 587 584 582 579 576 574 571 569 567 565 563 560 558 556 554 553 551 549 546 544 542 540 539 538 537 536 535 534 533 531 530 529 527 526 524 523 522 521 521 521 521 521 520 519 518 516 515 514 513 512 510 509 509 508 507 506 505 504 504 504 503 502 500 499 499 498 497 496 497 498 499 498 498 498 498 498 498 498
605 603 600 598 596 593 591 588 586 584 581 578 576 573 570 568 566 564 562 560 558 556 554 553 550 548 546 544 542 541 539 539 537 536 535 534 533 532 530 529 527 526 524 522 521 520 519 520 520 521 520 519 518 517 516 514 513 512 511 511 510 509 508 508 507 506 505 505 504 503 502 502 501 500 499 499 500 501 501 502 502 502 502 502 501 501
604 601 599 597 595 592 590 588 585 583 580 578 575 572 569 567 564 563 561 559 558 556 554 552 550 548 546 544 542 541 540 539 538 537 536 535 534 533 531 530 529 527 525 523 521 519 519 519 519 520 520 519 519 518 517 515 514 513 512 512 511 510 509 509 508 508 507 506 505 505 504 504 503 503 502 502 503 504 504 505 506 506 506 506 506 506